Terminal Aerodrome Forecast
Issued by NWS

Home | Current Version | Previous Version | Text Only | Print | Product List | Glossary On
Versions: 1 2 3 4 5 6 7 8 9 10 11 12 13 14 15 16 17 18 19 20 21 22 23
000
FTUS43 KLSX 182300
TAFUIN
TAF
KUIN 182339Z 1900/1924 03004KT P6SM BKN020 OVC050
     FM190200 06003KT 5SM BR OVC015
     FM191000 07003KT 3SM BR OVC007
     FM191700 12004KT 5SM BR OVC015
     FM192100 16004KT P6SM OVC020=

USA.gov is the U.S. government's official web portal to all federal, state and local government web resources and services.